Regional Weather Roundup
Issued by NWS

Home | Current Version | Previous Version | Graphics & Text | Print | Product List | Glossary On
Versions: 1 2 3 4 5 6 7 8 9 10 11 12 13 14 15 16 17 18 19 20 21 22 23 24 25 26 27 28 29 30 31 32 33 34 35 36 37 38 39 40 41 42 43 44 45 46 47 48 49 50
000
ASUS43 KLMK 240910
RWRKY
KENTUCKY REGIONAL WEATHER ROUNDUP
NATIONAL WEATHER SERVICE LOUISVILLE KY
500 AM EDT TUE MAY 24 2016

NOTE "FAIR" INDICATES FEW OR NO CLOUDS BELOW 12,000 FEET
WITH NO SIGNIFICANT WEATHER AND/OR OBSTRUCTIONS TO VISIBILITY.

KYZ001>023-026-027-061>063-070>075-241000-
WESTERN AND SOUTH CENTRAL KENTUCKY

CITY           SKY/WX    TMP DP  RH WIND       PRES   REMARKS
PADUCAH        MOCLDY    59  56  89 CALM      30.00R
HENDERSON      CLEAR     57  52  82 E3        30.02R
OWENSBORO      CLEAR     58  51  77 CALM      30.04R
HOPKINSVILLE   CLEAR     59  52  76 CALM      30.03R
BOWLING GREEN  CLEAR     52  50  93 CALM      30.04R
GLASGOW        CLEAR     49  49 100 CALM      30.05R
$$

KYZ024-025-028>034-038-045-046-053-241000-
NORTH CENTRAL KENTUCKY

CITY           SKY/WX    TMP DP  RH WIND       PRES   REMARKS
LOUISVILLE/SDF PTCLDY    59  50  72 NW3       30.05R
LOUISVILLE/LOU CLEAR     58  51  78 CALM      30.06R
FORT KNOX      CLEAR     51  49  93 E2        30.04R
$$

KYZ035>037-039>044-047>052-055>060-089>105-241000-
NORTHEAST KENTUCKY

CITY           SKY/WX    TMP DP  RH WIND       PRES   REMARKS
LEXINGTON      CLEAR     56  49  77 SE7       30.05R
COVINGTON      CLEAR     52  50  93 CALM      30.04R
FRANKFORT      CLEAR     50  47  89 CALM      30.03R
$$

KYZ054-064>069-076>088-106>120-241000-
SOUTHEAST KENTUCKY

CITY           SKY/WX    TMP DP  RH WIND       PRES   REMARKS
JACKSON        CLEAR     55  49  80 CALM      30.07R
LONDON         CLEAR     50  47  89 CALM      30.06R
SOMERSET       CLEAR     48  48 100 CALM      30.08R
MIDDLESBORO    CLEAR     48  48 100 CALM      30.10R
MONTICELLO     SUNNY     49  48  97 W13       30.08R
$$




USA.gov is the U.S. government's official web portal to all federal, state and local government web resources and services.